User: anonymous   Login
Location: Unspecified
(0.0000°N, 0.0000°E)
Time: 07:56:13
(UTC+00:00)
Language:

OBJECT BS - Orbit

View from above orbital plane
View from above orbital plane
View from above satellite
View from above satellite

Ground track
Ground track

The orbit data is extracted from the following two-line orbital elements,

1 43822U 18099BS  25138.87595551  .00005638  00000-0  35286-3 0  9999
2 43822  97.4867 192.9307 0006799 269.7382  90.3068 15.09773177346636
Epoch (UTC): 18 May 2025 21:01:22
Eccentricity: 0.0006799
inclination: 97.4867°
perigee height: 532 km
apogee height: 541 km
right ascension of ascending node: 192.9307°
argument of perigee: 269.7382°
revolutions per day: 15.09773177
mean anomaly at epoch: 90.3068°
orbit number at epoch: 34663

The dashed part of the orbit path shows where the satellite is in the earth's shadow,  

DLR